Overview Statistics Trail Chart Weather Telemetry Raw packets
 

This is the latest recevied weather packets stored in our database for station/object W3AJR. If no packets are shown the sender has not sent any weather packets the latest 10 day(s).

<< 9 10 11 12 13 14 15 >>
Time Temp. Humidity Pressure Rain* Wind** Luminosity Snow
1788536555 31.67° C 66% 1014.2 hPa 0 mm - 723 W/m² -
1788536250 31.67° C 68% 1014 hPa 0 mm - 714 W/m² -
1788535946 31.67° C 66% 1014.1 hPa 0 mm - 679 W/m² -
1788535642 31.11° C 66% 1014.3 hPa 0 mm - 711 W/m² -
1788535336 31.67° C 65% 1014.3 hPa 0 mm - 732 W/m² -
1788535031 31.67° C 65% 1014.1 hPa 0 mm - 749 W/m² -
1788534730 31.11° C 69% 1014.1 hPa 0 mm - 698 W/m² -
1788534426 31.11° C 69% 1014.2 hPa 0 mm - 697 W/m² -
1788534121 31.11° C 70% 1014.3 hPa 0 mm - 693 W/m² -
1788533820 30.56° C 71% 1014.3 hPa 0 mm - 691 W/m² -
1788533515 30° C 73% 1014.6 hPa 0 mm - 602 W/m² -
1788533210 28.89° C 76% 1014.3 hPa 0 mm - 619 W/m² -
1788532906 28.89° C 79% 1014.4 hPa 0 mm - 134 W/m² -
1788532602 28.89° C 78% 1014.6 hPa 0 mm - 74 W/m² -
1788532298 28.33° C 78% 1014.3 hPa 0 mm - 75 W/m² -
1788531995 28.33° C 80% 1014.2 hPa 0 mm - 69 W/m² -
1788531690 27.78° C 80% 1014.4 hPa 0 mm - 65 W/m² -
1788531385 27.78° C 79% 1014.4 hPa 0 mm - 62 W/m² -
1788531080 27.22° C 80% 1014.4 hPa 0 mm - 58 W/m² -
1788530776 27.22° C 81% 1014.5 hPa 0 mm - 57 W/m² -
1788530470 27.22° C 82% 1014.4 hPa 0 mm - 57 W/m² -
1788530169 26.67° C 83% 1014.3 hPa 0 mm - 57 W/m² -
1788529866 26.67° C 84% 1014.2 hPa 0 mm - 64 W/m² -
1788529561 26.11° C 86% 1014.2 hPa 0 mm - 60 W/m² -
1788529260 26.11° C 86% 1014.5 hPa 0 mm - 57 W/m² -

* Rain latest hour (hover to see other rain measurements)
** Current wind speed in m/s (hover to see current wind gust speed)